Location: Bucquoy
(50.1391°N, 2.7097°E)
Time: 03:52:55
(UTC+00:00)

USA 81 - Pass Details

Date: 06 May 2021
Orbit: 784 x 789 km, 85.0° (Epoch: 12 June)

Event Time Altitude Azimuth Distance (km) Brightness Sun altitude
Rises 01:05:13 0° 353° (N) 3,300 8.4 -21.0°
Reaches altitude 10° 01:07:36 10° 354° (N) 2,366 7.4 -20.9°
Maximum altitude 01:12:55 90° 70° (ENE) 797 4.0 -20.6°
Enters shadow 01:15:00 39° 175° (S) 1,177 4.5 -20.5°
